Wind_Speed
14 14 14 15 17 18 20 21 22 21 22 22 24 25 25 26 26 27 27 28 29 30 31 31 31 32 33 34 35 35 36 37 38 39 40 41 42 43 44 44 45 45 45 45
16 17 17 17 18 19 20 21 22 22 22 23 25 25 25 26 26 27 28 29 30 30 31 31 32 32 32 33 34 35 36 36 37 38 39 39 40 41 41 42 42 43 43 43
17 18 19 20 19 21 22 23 23 24 24 25 25 25 26 27 28 29 29 29 30 31 31 31 31 32 32 32 33 34 35 35 36 37 38 38 39 39 40 40 40 40 41 41
19 20 21 21 21 21 23 24 24 25 26 26 26 26 27 28 28 29 29 30 30 31 32 32 32 32 32 32 33 33 34 35 36 36 37 37 38 38 38 38 38 38 38 39
20 22 23 22 21 22 23 24 24 25 26 26 26 27 28 28 28 29 29 30 30 30 31 31 31 32 32 33 33 33 34 35 35 36 36 37 37 37 37 37 37 36 36 36
21 22 23 23 22 23 25 26 25 26 27 27 27 28 29 29 30 30 30 30 30 31 31 31 31 32 32 32 33 33 34 34 35 35 35 35 35 35 35 35 34 34 33 33
21 22 24 23 23 24 25 26 26 27 27 28 29 29 29 30 30 30 30 30 30 31 31 31 31 31 31 31 32 32 33 33 33 33 33 33 33 33 32 32 31 30 30 30
21 22 23 23 23 24 25 26 26 27 28 28 29 29 30 30 30 31 31 30 30 30 30 30 30 30 30 30 30 31 31 31 32 32 32 32 31 30 30 29 28 28 28 27
22 23 24 24 24 25 26 26 27 27 28 28 29 29 30 30 30 31 31 31 31 30 30 30 29 29 29 29 29 29 30 30 31 31 30 29 28 28 27 27 27 27 27 27
21 23 25 26 26 27 28 28 28 28 29 29 29 29 30 30 31 31 31 31 30 30 30 30 30 29 29 29 29 29 29 29 29 28 28 27 27 26 26 26 26 25 25 26
21 23 25 26 27 28 28 29 29 30 30 31 31 30 30 30 31 31 31 31 30 30 30 30 30 30 30 30 29 29 28 28 28 28 27 27 27 26 24 24 24 24 24 25
19 22 24 26 28 29 29 30 30 31 31 32 32 32 32 31 31 31 32 32 32 31 31 31 30 30 30 30 30 29 28 28 27 27 26 26 26 25 25 24 24 24 24 25
19 21 23 25 26 28 29 30 30 31 32 33 33 34 34 33 33 33 33 33 33 33 32 32 31 30 31 30 30 29 29 28 27 27 27 26 26 26 26 25 25 25 26 26
20 22 23 25 26 27 29 29 30 31 32 33 34 35 35 36 35 35 35 34 34 34 33 33 33 32 32 31 30 29 29 29 28 27 26 26 26 27 27 27 27 28 28 29
22 23 24 26 27 28 30 31 32 33 34 35 36 36 36 37 37 37 36 35 34 34 34 33 33 33 33 33 32 31 30 30 30 29 29 28 28 28 28 28 29 29 30 30
25 26 26 27 28 29 30 31 33 34 35 36 37 37 37 37 37 37 37 36 35 35 35 34 34 34 33 33 32 32 31 31 30 30 30 29 29 29 30 30 30 30 31 32
29 29 30 31 32 33 34 35 35 35 35 36 37 37 36 35 35 35 35 35 35 34 34 35 35 35 34 33 32 32 32 32 32 31 31 31 31 31 31 31 31 32 32 32
33 33 34 34 35 36 37 37 37 38 37 37 37 37 36 35 34 34 35 35 34 34 34 34 33 34 34 33 33 33 33 32 32 33 33 33 32 32 32 32 32 32 32 33
36 37 37 38 38 38 38 38 38 38 37 37 36 34 33 33 33 33 34 34 34 34 34 34 34 34 34 34 34 34 33 33 33 33 32 32 32 31 31 31 30 30 31 32
39 39 39 40 40 40 39 38 37 36 35 35 34 33 32 32 32 33 33 33 33 33 33 34 34 34 34 34 34 34 34 34 33 32 32 31 31 30 30 30 30 30 30 30
42 42 42 42 42 41 39 38 37 36 35 34 33 32 32 32 33 34 34 34 34 33 33 33 33 32 32 32 33 33 33 33 33 32 31 31 30 30 30 30 30 30 30 30
44 44 44 43 42 40 40 39 38 37 35 34 33 32 32 32 32 31 31 31 32 33 32 31 31 31 30 30 30 31 31 31 31 31 30 30 30 30 30 30 30 30 30 31
46 46 45 44 43 41 40 39 37 36 34 32 31 30 30 29 28 27 27 28 29 30 31 31 31 30 29 29 28 29 30 30 30 30 30 29 29 30 30 30 30 30 31 31
48 48 47 45 44 42 39 37 35 33 32 30 29 28 27 27 26 26 25 26 27 28 29 29 30 30 29 29 28 28 28 29 29 30 30 29 29 29 29 29 29 29 30 30
50 49 47 45 43 41 37 35 34 32 30 29 28 27 26 25 25 25 25 25 26 27 27 28 29 29 29 29 28 28 27 28 28 29 29 30 30 30 29 29 29 28 28 29
50 47 45 43 41 39 36 34 32 30 29 28 27 26 25 25 25 25 25 25 26 26 27 28 28 28 28 28 28 27 27 27 28 29 29 30 30 30 29 29 29 29 29 29
49 46 44 42 40 38 36 33 31 29 28 27 26 25 25 24 25 25 25 25 25 26 27 28 28 28 28 27 27 27 27 27 27 27 28 28 29 29 28 28 28 28 29 29
Wind_Direction
242 239 237 233 234 235 237 239 241 241 242 245 248 251 253 253 252 252 252 252 253 254 256 258 259 260 260 260 260 261 262 263 264 265 267 268 268 269 269 270 271 271 271 271
246 246 244 242 241 241 243 244 246 245 245 247 251 253 254 254 253 253 254 254 255 256 258 259 260 261 261 261 261 261 262 264 265 265 266 268 269 269 270 271 271 271 271 271
250 250 249 249 249 250 250 249 250 250 250 252 254 255 254 254 255 255 256 257 256 257 258 259 261 262 263 262 262 262 263 264 265 266 267 268 269 270 270 271 272 272 271 271
253 253 254 256 254 254 254 254 254 254 254 255 256 256 257 257 258 258 258 259 259 259 259 260 261 262 263 263 262 263 264 264 265 267 268 269 270 271 271 272 272 272 271 271
258 258 259 258 257 257 256 256 257 257 257 258 258 258 258 259 259 260 260 260 260 259 259 260 261 263 263 263 263 263 264 264 265 267 269 270 271 272 272 272 272 272 272 271
260 260 261 261 261 260 260 260 260 260 259 259 259 259 259 260 260 260 260 260 260 260 261 261 262 263 263 263 263 264 264 265 267 268 270 271 272 272 272 272 272 271 271 271
262 263 264 265 264 263 263 264 263 261 260 260 259 260 259 260 260 261 261 261 261 261 261 261 262 263 263 263 264 264 265 266 267 267 269 270 271 272 271 271 270 270 270 270
263 265 267 267 267 266 266 266 265 264 262 261 261 261 260 259 259 260 262 262 262 261 261 261 262 262 262 263 264 264 265 265 266 267 269 270 271 271 270 270 270 269 270 270
265 266 267 268 269 268 268 268 267 266 264 262 261 261 260 260 259 260 261 260 261 261 260 260 260 261 262 262 263 264 265 266 266 267 267 268 269 269 268 269 270 270 269 269
269 267 268 269 270 270 270 269 268 267 265 264 263 262 262 262 261 261 260 260 261 260 259 259 259 260 261 261 263 264 265 265 265 264 264 266 266 267 268 268 269 270 270 270
277 273 272 272 273 272 271 271 270 270 269 267 265 264 264 263 263 262 260 260 260 259 258 258 259 259 260 261 262 263 264 265 263 263 262 264 264 266 267 267 268 270 271 270
288 284 280 277 275 275 274 273 271 271 270 270 268 266 264 263 263 262 261 259 258 259 258 258 258 258 259 260 261 260 262 263 262 261 261 263 264 265 265 266 267 267 268 269
296 293 289 284 281 279 277 276 274 273 271 270 269 268 267 265 263 262 261 259 258 257 258 257 257 258 258 258 259 258 259 260 262 260 260 262 263 264 264 265 267 268 268 270
305 299 294 291 287 284 280 278 277 277 276 275 273 271 270 267 264 262 260 260 258 257 256 256 257 258 258 258 259 258 257 258 258 258 260 262 264 264 264 265 267 269 270 272
310 305 300 296 293 289 285 282 280 279 279 279 277 274 272 269 265 262 260 259 258 257 256 256 256 257 257 257 257 257 256 257 257 257 259 261 264 264 265 265 267 268 271 273
311 307 303 299 296 293 289 287 285 283 282 281 280 277 274 270 265 261 259 258 258 257 257 256 255 254 254 255 255 255 255 255 256 257 259 261 263 264 265 266 267 269 271 272
312 308 304 300 298 295 292 289 287 286 286 285 282 279 275 271 265 259 259 258 258 257 256 255 252 251 252 253 254 254 255 255 256 257 259 261 263 265 265 267 268 269 270 272
313 310 307 303 301 297 294 291 288 287 286 286 284 280 274 269 264 260 258 258 258 256 255 253 252 251 251 252 253 254 255 256 257 259 260 262 263 265 266 267 268 269 270 272
313 310 308 307 304 302 299 296 292 289 287 285 283 279 274 269 264 260 258 257 256 254 253 252 252 252 252 253 254 254 255 256 257 258 260 261 263 264 265 266 268 269 271 273
314 313 311 309 307 305 302 299 296 291 288 285 282 279 274 270 266 262 259 257 255 254 253 251 251 252 253 253 254 254 254 254 255 257 258 260 261 263 264 266 268 270 273 274
314 314 312 310 309 307 303 300 297 294 289 285 282 279 274 270 268 264 261 257 254 253 252 251 251 251 253 254 253 252 252 252 253 254 257 259 261 263 264 266 268 271 273 275
314 313 312 312 310 308 304 300 297 294 291 286 283 280 276 273 269 265 261 256 251 250 248 247 249 250 251 252 252 251 250 251 251 253 256 259 261 263 264 266 269 271 273 276
314 313 312 311 311 308 305 302 299 295 291 288 284 281 277 273 268 263 259 253 249 247 246 245 246 246 248 250 251 252 251 250 250 253 256 259 261 262 264 267 270 272 274 276
313 312 311 310 310 308 305 302 300 296 292 288 284 280 276 270 265 261 257 253 249 247 246 244 244 245 247 249 250 251 251 250 251 253 256 258 260 262 264 267 270 272 274 276
313 312 311 310 309 307 304 302 299 296 292 289 284 279 274 269 263 258 256 253 250 247 245 243 243 245 246 247 249 251 252 253 254 256 257 259 261 262 264 267 269 272 274 277
313 313 311 310 308 306 304 302 299 295 291 287 282 278 274 268 262 259 257 255 252 248 245 244 245 245 245 246 248 250 253 255 257 258 260 262 263 263 264 266 268 271 274 278
313 312 310 308 306 305 303 301 297 295 290 285 280 276 273 268 262 259 258 256 253 249 247 246 246 245 245 246 248 251 253 255 257 258 260 261 262 262 264 266 269 271 275 278
Height
5632 5634 5635 5637 5639 5641 5644 5646 5649 5651 5653 5655 5656 5658 5660 5662 5664 5665 5667 5669 5671 5672 5674 5675 5677 5678 5679 5680 5681 5682 5683 5684 5685 5685 5686 5686 5687 5687 5687 5687 5687 5688 5688 5688
5629 5631 5632 5634 5636 5638 5640 5642 5644 5646 5648 5649 5650 5652 5654 5655 5657 5658 5660 5661 5663 5664 5665 5667 5668 5669 5670 5671 5671 5672 5673 5674 5675 5675 5676 5676 5676 5676 5676 5676 5676 5676 5676 5676
5626 5627 5629 5631 5633 5634 5635 5637 5638 5640 5643 5643 5645 5646 5647 5648 5649 5651 5652 5653 5654 5655 5656 5658 5659 5660 5661 5661 5662 5663 5664 5664 5665 5665 5666 5666 5666 5666 5665 5665 5665 5665 5665 5665
5622 5624 5625 5629 5628 5629 5630 5631 5632 5634 5635 5636 5638 5638 5639 5640 5642 5643 5644 5645 5646 5647 5648 5649 5650 5651 5651 5652 5652 5653 5654 5654 5655 5655 5655 5655 5655 5655 5655 5655 5655 5654 5654 5654
5617 5618 5619 5622 5623 5623 5624 5625 5626 5627 5628 5629 5630 5631 5632 5633 5634 5634 5635 5636 5637 5638 5639 5640 5641 5641 5642 5642 5643 5643 5644 5645 5645 5645 5645 5645 5645 5645 5645 5645 5644 5644 5644 5644
5612 5613 5614 5616 5617 5616 5618 5618 5619 5620 5620 5621 5622 5623 5625 5625 5625 5626 5626 5627 5628 5629 5630 5631 5631 5632 5632 5633 5633 5634 5634 5635 5635 5636 5636 5636 5635 5635 5635 5635 5634 5634 5634 5634
5607 5607 5608 5610 5610 5610 5612 5613 5612 5612 5613 5613 5614 5615 5616 5616 5616 5617 5618 5618 5619 5620 5620 5621 5622 5622 5623 5623 5624 5624 5625 5625 5626 5626 5626 5626 5626 5626 5625 5625 5625 5625 5625 5625
5602 5602 5605 5603 5603 5604 5604 5604 5604 5604 5604 5605 5605 5606 5606 5607 5608 5608 5609 5609 5610 5610 5611 5612 5612 5613 5614 5614 5615 5615 5615 5616 5616 5616 5617 5617 5617 5617 5617 5617 5617 5617 5617 5617
5597 5599 5597 5597 5597 5597 5596 5596 5596 5596 5596 5596 5597 5597 5598 5598 5599 5599 5600 5600 5601 5601 5602 5603 5603 5604 5605 5605 5606 5606 5606 5607 5607 5607 5608 5608 5608 5608 5609 5609 5609 5609 5609 5609
5591 5591 5591 5590 5590 5590 5589 5589 5589 5588 5588 5588 5588 5589 5589 5589 5589 5590 5590 5591 5591 5592 5593 5594 5594 5595 5596 5597 5597 5597 5598 5598 5598 5599 5599 5600 5600 5601 5601 5601 5601 5601 5601 5602
5585 5585 5584 5584 5583 5583 5582 5581 5581 5580 5580 5579 5579 5580 5580 5580 5580 5580 5581 5581 5582 5583 5583 5584 5585 5586 5587 5587 5588 5589 5589 5590 5590 5591 5591 5592 5592 5593 5593 5593 5594 5594 5594 5595
5581 5579 5578 5577 5575 5574 5574 5573 5572 5572 5571 5570 5570 5570 5570 5570 5570 5571 5571 5572 5572 5573 5574 5575 5576 5577 5578 5578 5579 5580 5581 5581 5582 5582 5583 5584 5584 5585 5585 5586 5586 5587 5587 5587
5575 5573 5571 5569 5567 5565 5564 5563 5563 5562 5561 5561 5560 5560 5560 5560 5560 5560 5561 5561 5562 5563 5564 5565 5566 5567 5568 5569 5570 5571 5572 5573 5574 5574 5575 5576 5577 5577 5578 5578 5579 5579 5579 5579
5569 5567 5564 5562 5559 5556 5555 5554 5553 5552 5551 5550 5549 5548 5548 5548 5549 5549 5550 5550 5551 5552 5554 5555 5556 5557 5558 5560 5561 5562 5563 5564 5565 5566 5567 5568 5568 5569 5570 5570 5571 5571 5571 5571
5564 5561 5558 5554 5551 5548 5546 5544 5543 5542 5541 5539 5538 5536 5535 5535 5536 5536 5538 5539 5540 5541 5542 5544 5545 5546 5548 5549 5551 5552 5553 5555 5556 5557 5558 5559 5560 5560 5561 5562 5562 5562 5562 5562
5558 5554 5550 5547 5544 5540 5537 5535 5533 5531 5529 5527 5524 5522 5521 5520 5520 5522 5525 5527 5528 5530 5531 5532 5533 5535 5537 5539 5540 5542 5544 5545 5546 5548 5549 5550 5551 5551 5552 5552 5553 5553 5553 5552
5551 5547 5543 5539 5535 5531 5528 5525 5522 5519 5517 5514 5511 5508 5506 5505 5506 5509 5512 5514 5516 5517 5518 5519 5521 5524 5526 5528 5530 5532 5533 5535 5536 5538 5539 5540 5541 5542 5542 5542 5543 5543 5543 5542
5542 5538 5533 5529 5525 5520 5516 5512 5509 5507 5504 5500 5497 5495 5494 5494 5494 5497 5499 5501 5503 5505 5507 5508 5510 5513 5515 5517 5519 5521 5523 5524 5526 5527 5529 5530 5531 5531 5532 5532 5532 5533 5532 5532
5533 5528 5523 5518 5513 5508 5503 5499 5495 5492 5489 5486 5484 5482 5481 5481 5483 5484 5486 5489 5491 5493 5495 5497 5499 5501 5503 5506 5507 5510 5512 5513 5515 5517 5518 5519 5520 5521 5521 5522 5522 5522 5522 5522
5523 5517 5512 5506 5501 5495 5491 5487 5483 5479 5476 5473 5471 5470 5469 5470 5471 5472 5474 5476 5478 5480 5483 5485 5488 5490 5492 5494 5495 5497 5500 5502 5504 5506 5507 5509 5510 5511 5511 5512 5512 5512 5512 5512
5513 5507 5501 5495 5490 5484 5479 5474 5471 5467 5464 5461 5459 5458 5458 5458 5459 5460 5461 5463 5465 5468 5471 5473 5476 5478 5480 5482 5484 5486 5488 5491 5493 5495 5497 5498 5499 5500 5501 5502 5502 5502 5502 5501
5502 5496 5490 5484 5478 5473 5467 5463 5459 5455 5452 5450 5448 5447 5447 5446 5446 5447 5447 5449 5452 5456 5459 5462 5465 5467 5470 5471 5473 5475 5478 5480 5482 5484 5486 5488 5489 5490 5491 5492 5492 5492 5492 5491
5491 5484 5478 5472 5467 5461 5456 5451 5447 5443 5440 5438 5437 5436 5435 5435 5435 5436 5437 5439 5442 5445 5448 5451 5454 5457 5460 5462 5464 5466 5468 5470 5472 5475 5476 5478 5479 5480 5481 5481 5482 5482 5482 5481
5479 5472 5466 5460 5454 5449 5444 5440 5436 5432 5430 5428 5426 5425 5425 5425 5426 5426 5428 5430 5432 5435 5438 5441 5444 5447 5450 5452 5455 5457 5459 5461 5463 5465 5467 5468 5469 5470 5471 5471 5472 5472 5472 5471
5466 5459 5453 5448 5442 5437 5433 5429 5425 5422 5420 5418 5417 5415 5415 5415 5417 5418 5419 5421 5423 5425 5428 5431 5434 5437 5440 5443 5445 5447 5449 5451 5453 5455 5457 5458 5459 5460 5461 5461 5462 5462 5462 5461
5452 5446 5440 5435 5430 5426 5422 5418 5415 5413 5410 5409 5408 5407 5406 5407 5408 5409 5410 5412 5414 5416 5419 5422 5425 5428 5430 5433 5436 5438 5440 5442 5444 5445 5447 5448 5449 5450 5450 5451 5452 5452 5452 5452
5439 5434 5428 5423 5419 5414 5411 5408 5405 5403 5401 5399 5399 5398 5398 5398 5399 5400 5402 5403 5405 5407 5409 5412 5415 5418 5421 5424 5426 5429 5431 5433 5434 5436 5437 5438 5439 5440 5441 5441 5442 5442 5442 5442